Content
SEND FEEDBACK

Daily
Averages
Monthly
Summary
United States of America

SOUTH LAKE TAHOE, CALIFORNIA


Home > North America > United States > California
Elevation: 6263 feet     Latitude: 38 53N     Longitude: 119 59W

WEATHER
 
SELECT A DAY
Number of Records: 178,656;   Date Range: 1/1/95 - 12/19/14
 
SHARE

PRINT THIS DATA

[ ← Previous Day ]
WEATHER ALMANAC - APRIL 7, 2013
[ Next Day → ]
[ °C ]   °F
Weather ElementAverageHighLow
Temperature41.5 °F53.1 °F (12:53 pm)33.8 °F (11:36 pm)
Dewpoint27.9 °F32 °F (3:53 am)24.1 °F (7:53 pm)
Humidity60.2 %81 % (11:57 pm)37 % (12:53 pm)
Barometer29.88 in30.09 in (7:27 am)29.61 in (11:53 pm)
Wind Speed15.6 mph24.2 mph (4:53 pm)
Wind Gust39.1 mph (4:53 pm)
Weather ElementAverage
Visibility8.1 mi
Wind DirectionSSW (196.9 °)

Weather ElementTotal
Precipitation0.05 in
Heating Degree Days21.6 (Base 65)
Averaged from 39 records on April 7, 2013
WEATHER CONDITIONS BREAKOUT
WIND DIRECTION BREAKOUT
WEATHER BY HOUR - APRIL 7, 2013
[ °C ]   °F
Local TimeTemperatureDewpointHumidityBarometerVisibilityWind DirectionWind SpeedGust SpeedPrecipitationEventsConditions
1:53 AM42.1 °F30.0 °F62 %30.03 in10.0 miSSE (160°)15.0 mph0.00 inRainLight Rain
2:53 AM42.1 °F28.9 °F60 %30.01 in10.0 miSSE (160°)13.8 mph23.0 mph0.00 inOvercast
3:53 AM39.9 °F32.0 °F73 %30.01 in10.0 miSouth (180°)16.1 mph0.00 inRainLight Rain
4:53 AM41.0 °F30.9 °F67 %30.00 in10.0 miSouth (180°)17.3 mph23.0 mph0.00 inOvercast
5:00 AM41.0 °F30.2 °F65 %30.08 in10.0 miSSW (200°)17.3 mph25.3 mphOvercast
5:28 AM39.2 °F32.0 °F75 %30.07 in10.0 miSSW (200°)13.8 mph24.2 mphOvercast
5:35 AM39.2 °F32.0 °F75 %30.07 in10.0 miSouth (190°)16.1 mph21.9 mph0.00 inRainLight Rain
5:42 AM39.2 °F32.0 °F75 %30.08 in10.0 miSouth (190°)13.8 mph21.9 mph0.00 inOvercast
5:53 AM39.9 °F30.9 °F70 %30.01 in10.0 miSSW (200°)16.1 mph21.9 mph0.00 inMostly Cloudy
6:17 AM41.0 °F30.2 °F65 %30.08 in10.0 miSSW (200°)11.5 mph16.1 mphMostly Cloudy
6:53 AM39.9 °F30.9 °F70 %30.02 in10.0 miSouth (190°)12.7 mph0.00 inRainLight Rain
7:06 AM39.2 °F30.2 °F70 %30.08 in10.0 miSSW (200°)13.8 mph0.00 inOvercast
7:27 AM39.2 °F30.2 °F70 %30.09 in10.0 miSSW (200°)9.2 mph0.00 inScattered Clouds
7:53 AM41.0 °F30.9 °F67 %30.02 in10.0 miSouth (190°)18.4 mph23.0 mph0.00 inClear
8:53 AM44.1 °F28.0 °F53 %30.01 in10.0 miSouth (190°)16.1 mphClear
9:53 AM46.0 °F28.0 °F50 %29.98 in10.0 miSouth (180°)15.0 mph24.2 mphClear
10:53 AM50.0 °F26.1 °F39 %29.98 in10.0 miSouth (190°)16.1 mph23.0 mphClear
11:53 AM51.1 °F28.0 °F41 %29.96 in10.0 miSSW (200°)11.5 mph21.9 mphClear
12:53 PM53.1 °F27.0 °F37 %29.91 in10.0 miSSW (200°)17.3 mph26.5 mphClear
1:53 PM53.1 °F27.0 °F37 %29.87 in10.0 miSSW (200°)17.3 mph34.5 mphClear
2:53 PM51.1 °F27.0 °F39 %29.84 in10.0 miSSW (210°)16.1 mph34.5 mphClear
3:53 PM51.1 °F26.1 °F38 %29.83 in10.0 miSSW (210°)13.8 mph34.5 mphClear
4:53 PM48.0 °F26.1 °F42 %29.82 in10.0 miSSW (200°)24.2 mph39.1 mphClear
5:53 PM46.0 °F27.0 °F47 %29.81 in10.0 miSSW (200°)20.7 mph32.2 mphClear
6:53 PM45.0 °F26.1 °F48 %29.77 in10.0 miSSW (200°)19.6 mph28.8 mphOvercast
7:53 PM42.1 °F24.1 °F49 %29.75 in10.0 miSW (220°)12.7 mph33.4 mphMostly Cloudy
8:30 PM39.2 °F26.6 °F61 %29.80 in3.0 miSW (220°)11.5 mph36.8 mph0.01 inHaze
8:40 PM39.2 °F24.8 °F56 %29.80 in10.0 miSW (220°)15.0 mph26.5 mph0.01 inRainLight Rain
8:53 PM39.0 °F24.1 °F55 %29.72 in10.0 miSSW (200°)16.1 mph28.8 mph0.01 inMostly Cloudy
9:53 PM37.0 °F24.1 °F59 %29.68 in5.0 miSouth (190°)17.3 mph35.7 mph0.01 inSnowLight Snow
10:25 PM35.6 °F26.6 °F70 %29.74 in2.5 miSSW (200°)21.9 mph33.4 mph0.00 inSnowLight Snow
10:32 PM37.4 °F24.8 °F60 %29.73 in5.0 miSSW (210°)13.8 mph35.7 mph0.00 inSnowLight Snow
10:53 PM37.0 °F25.0 °F62 %29.65 in8.0 miSSW (200°)23.0 mph33.4 mph0.00 inSnowLight Snow
11:02 PM35.6 °F24.8 °F65 %29.71 in4.0 miSSW (210°)17.3 mph36.8 mph0.00 inSnowLight Snow
11:08 PM35.6 °F26.6 °F70 %29.71 in1.8 miSSW (200°)17.3 mph32.2 mph0.00 inSnowLight Snow
11:20 PM35.6 °F26.6 °F70 %29.69 in3.0 miSouth (180°)13.8 mph23.0 mph0.00 inSnowLight Snow
11:36 PM33.8 °F26.6 °F75 %29.68 in1.8 miSSW (200°)15.0 mph20.7 mph0.00 inSnowLight Snow
11:53 PM34.0 °F28.0 °F79 %29.61 in0.8 miSSW (200°)9.2 mph20.7 mph0.01 inSnowLight Snow
11:57 PM33.8 °F28.4 °F81 %29.68 in0.5 miSSW (210°)11.5 mph20.7 mph0.00 inSnowSnow
Hourly data recorded from KTVL, located miles away from South Lake Tahoe, California







STORIES FROM OUR PARTNERS